Volver al catálogo

OPS 4682 DEB

ActivoPO
NORAD 38446·DEBRIS·🇺🇸 United States

Lanzado Apr 3, 1965 desde Vandenberg Space Force Base

Loading…

Próximos Pases (próximas 24 horas)

TLE

ActualizadoSource: Space-Track

Época: Sep 14, 2026, 08:02 UTC

1 38446U 65027FB  26257.33537312 -.00000395  00000-0 -13107-2 0  9997
2 38446  90.2744  30.1128 0018514 172.2891 187.8520 13.01376335598877

Sigue OPS 4682 DEB en tiempo real con AllMySat

Download on the App Store